User: anonymous   Login
Location: Clinton NY
(43.0598°N, 75.3602°W)
Time: 00:14:19
(UTC-04:00)
Language:

Iridium 42 - Orbit

View from above orbital plane
View from above orbital plane
View from above satellite
View from above satellite

Ground track
Ground track

The orbit data is extracted from the following two-line orbital elements,

1 25077U 97077A   14297.41601921  .00000398  00000-0  13496-3 0    63
2 25077 086.3973 066.0910 0002200 111.6093 248.5337 14.34252553883607
Epoch (UTC): 24 October 2014 09:59:04
Eccentricity: 0.0002200
inclination: 86.3973°
perigee height: 776 km
apogee height: 779 km
right ascension of ascending node: 66.0910°
argument of perigee: 111.6093°
revolutions per day: 14.34252553
mean anomaly at epoch: 248.5337°
orbit number at epoch: 88360

The dashed part of the orbit path shows where the satellite is in the earth's shadow,  

DLR